Location: Peebles
(55.6412°N, 3.1714°W)
Time: 15:32:54
(UTC+01:00)

deb Agena D - Pass Details

Date: 23 September 2024
Orbit: 793 x 976 km, 99.8° (Epoch: 03 October)

Event Time Altitude Azimuth Distance (km) Brightness Sun altitude
Rises 03:53:35 0° 18° (NNE) 3,465 10.3 -25.0°
Reaches altitude 10° 03:55:56 10° 17° (NNE) 2,550 9.5 -24.7°
Maximum altitude 04:01:38 82° 291° (WNW) 928 6.2 -24.1°
Enters shadow 04:03:04 54° 213° (SSW) 1,114 6.4 -23.9°
